{"data":{"norad_id":33434,"intl_designator":"2008-056B","name":"CHUANGXIN 1-02 (CX-1-02)","alt_names":[],"object_type":"PAYLOAD","status":"ACTIVE","operator":null,"country":"PRC","launch_date":"2008-11-05","launch_site_code":"JSC","launch_vehicle":null,"mission":null,"orbit_class":"UNKNOWN","rcs_meters":0.539,"size_class":null,"mass_kg":null,"dimensions":null,"purposes":[],"wikipedia_slug":null,"has_3d_model":false,"image_url":null,"decayed_at":null,"tle_current":{"epoch":"2026-05-25T03:21:24.560640Z","epoch_age_seconds":59639,"freshness":"FRESH","line1":"1 33434U 08056B   26145.13986760 -.00000069  00000+0 -98315-5 0  9991","line2":"2 33434  98.6151 171.6358 0013663 203.7811 156.2741 14.30147208915327","mean_motion":14.30147208,"eccentricity":0.0013663,"inclination_deg":98.6151,"raan_deg":171.6358,"arg_perigee_deg":203.7811,"mean_anomaly_deg":156.2741,"bstar":-9.8315e-6,"rev_number":91532,"period_min":100.68893551271,"perigee_km":781.44329327929,"apogee_km":801.03432962166,"semimajor_km":7169.3758114505,"source":"CELESTRAK","updated_at":"2026-05-25T13:37:55.152904Z"}}}